Wind_Speed
45 45 45 45 45 46 46 46 45 44 44 45 45 45 45 44 44 43 42 41 40 40 38 37 36 35 33 32 31 30 29 28 28 27 25 24 23 23
46 46 45 46 46 45 45 45 45 45 45 44 44 44 43 43 43 42 41 40 39 38 37 36 35 33 32 31 30 29 29 28 27 25 24 24 23 23
47 47 45 44 44 45 45 45 44 44 44 43 42 42 42 42 42 41 40 39 38 37 36 34 33 32 31 30 29 29 27 26 25 24 24 24 23 23
45 45 44 44 44 44 44 44 44 43 42 42 41 40 41 40 40 38 37 37 36 35 34 33 32 31 30 29 28 27 26 25 24 24 24 23 23 23
44 44 44 43 43 43 43 42 42 41 41 40 39 39 39 38 37 37 36 35 35 34 33 32 30 30 29 28 28 26 25 25 24 23 23 23 23 23
42 42 42 41 41 41 41 41 40 39 39 38 38 37 37 37 36 36 35 34 34 33 31 30 29 29 28 27 26 25 24 24 24 23 23 23 23 23
41 41 40 40 40 40 40 40 39 39 38 37 36 36 37 36 35 34 33 32 32 31 30 29 29 28 27 26 25 24 24 24 24 24 23 23 23 23
41 40 39 39 39 38 38 38 38 37 37 36 36 36 35 34 33 32 31 31 30 29 29 28 27 27 26 25 24 23 23 24 24 23 23 23 23 23
40 38 37 37 37 38 37 37 37 37 36 36 35 34 33 32 32 31 30 29 28 27 27 27 26 25 24 24 24 24 24 24 24 24 23 23 23 24
38 38 37 37 37 37 37 37 36 36 35 34 33 33 32 31 30 29 28 28 27 26 26 26 25 24 24 24 24 24 24 24 24 24 24 24 24 24
37 37 37 36 36 36 35 35 34 34 33 32 31 31 30 29 29 28 27 27 26 26 25 25 24 24 23 24 24 24 25 25 25 24 24 24 25 25
37 37 36 36 35 35 35 34 33 33 32 31 31 30 30 29 28 28 27 27 26 26 25 25 24 24 24 24 24 24 25 25 25 25 25 25 26 26
36 36 35 35 35 35 34 33 33 32 31 31 30 30 29 29 28 28 27 26 26 26 25 25 25 24 24 24 24 25 25 25 26 26 26 26 27 27
35 35 34 34 34 33 33 32 32 31 30 30 29 29 28 28 28 27 27 27 26 26 26 25 25 25 25 25 25 25 25 26 26 27 27 28 28 28
34 34 33 33 32 32 32 31 31 30 30 29 29 28 28 28 27 27 27 27 27 27 26 26 26 26 26 26 26 26 26 27 27 28 28 29 29 30
33 32 32 31 31 31 31 31 31 30 30 30 29 29 29 29 28 27 27 27 27 27 27 27 27 27 27 26 26 27 27 28 29 29 30 30 30 31
31 31 31 31 31 31 31 31 31 30 30 29 29 28 28 28 28 28 28 28 28 28 28 28 28 28 28 28 28 28 29 29 30 31 31 31 32 32
31 31 31 31 31 31 30 30 30 30 30 29 28 29 29 29 29 29 29 29 29 29 29 29 29 29 29 29 30 30 30 31 31 31 32 32 33 33
31 31 31 31 30 30 30 30 29 29 30 30 29 29 30 30 30 30 30 30 30 30 30 30 30 30 30 31 31 31 31 31 32 32 32 33 33 34
31 31 31 31 31 31 31 31 30 30 30 31 31 31 31 31 31 31 31 31 31 31 31 31 32 32 32 32 32 32 32 32 32 33 33 33 34 35
31 31 31 31 31 31 31 31 31 31 31 31 32 32 32 32 32 33 33 33 33 32 33 33 33 33 33 33 33 34 34 34 34 34 34 35 35 36
32 32 31 31 31 31 31 31 31 31 31 32 32 32 32 33 33 33 34 34 34 34 34 34 34 34 34 35 35 36 36 36 36 36 36 36 37 37
32 32 32 32 32 32 32 32 32 32 32 32 32 32 33 33 34 34 34 35 35 35 35 35 36 36 36 36 37 37 38 38 38 38 38 39 39 39
Wind_Direction
275 276 277 278 278 279 280 282 283 284 285 285 285 285 286 286 287 287 287 287 287 286 286 285 284 283 281 280 278 275 273 271 269 269 267 264 260 258
275 277 277 278 279 280 281 282 283 284 285 284 283 284 285 286 286 286 286 286 285 284 284 283 282 281 279 277 275 273 271 268 266 265 263 260 257 257
276 277 278 279 279 279 280 282 282 283 284 283 283 283 284 285 285 285 285 285 283 283 282 281 281 279 277 275 274 271 268 264 262 261 261 258 256 255
275 276 277 278 279 279 280 281 281 281 282 282 282 283 284 284 284 284 284 283 282 282 281 280 279 277 275 274 271 268 265 262 260 259 258 256 254 254
274 275 276 277 278 278 279 280 281 281 281 281 282 282 283 283 283 283 283 283 282 281 280 279 278 276 274 273 269 266 261 258 257 257 254 255 253 253
272 274 275 276 278 278 279 280 280 280 280 280 281 281 282 282 282 282 282 282 281 279 278 277 276 276 273 271 267 262 258 256 255 255 255 254 252 252
273 275 276 276 278 278 278 279 279 279 279 279 280 281 281 281 280 280 280 280 279 278 276 274 275 274 271 268 263 259 256 254 254 254 255 253 252 251
273 274 275 275 277 278 278 277 277 277 277 279 280 281 281 281 280 279 278 278 277 276 274 273 273 271 268 264 260 257 256 255 256 255 254 252 252 251
271 273 274 275 276 276 276 276 276 276 277 279 280 280 280 279 278 277 276 276 275 273 272 271 270 268 265 262 258 257 256 256 255 254 254 252 252 252
270 271 273 275 276 276 276 276 276 276 277 278 278 278 277 276 275 274 274 273 272 271 271 269 268 265 263 262 259 259 258 257 255 254 254 253 253 253
268 270 273 274 274 275 275 274 274 275 276 275 276 276 274 273 272 272 272 271 270 269 269 267 266 264 263 263 261 259 259 257 256 255 255 254 254 255
267 268 270 270 271 273 274 274 274 274 275 274 274 273 272 271 271 269 269 269 268 267 266 266 265 264 263 262 260 260 259 258 257 256 256 256 256 257
266 267 268 269 271 272 273 274 273 273 272 272 272 271 270 269 269 268 267 267 266 266 265 265 265 264 263 262 261 260 259 259 259 258 258 258 258 259
266 266 267 268 270 270 271 272 272 271 271 271 270 269 269 268 267 266 266 266 266 265 264 265 265 264 263 262 261 260 260 261 261 261 260 260 261 261
264 265 266 267 269 269 270 271 271 271 270 269 268 267 267 266 266 264 265 265 265 264 263 264 265 264 263 263 262 261 261 262 262 262 262 263 263 263
263 264 265 266 267 268 270 270 270 270 269 268 267 266 266 265 263 263 264 264 264 264 263 264 264 264 264 263 263 263 263 264 264 264 264 265 265 265
261 264 266 266 267 268 269 269 269 268 267 267 265 264 264 264 263 262 263 264 264 264 264 263 263 263 264 265 265 265 265 266 266 266 266 266 265 266
261 264 266 267 267 267 268 268 268 267 266 265 264 264 263 263 263 263 264 264 264 264 264 264 263 263 264 265 266 267 267 267 267 267 267 266 267 267
262 264 266 267 267 267 267 267 267 267 265 264 264 264 264 263 264 264 265 265 265 265 264 264 264 264 265 266 267 268 268 268 268 267 267 267 267 269
262 263 265 266 266 267 266 266 266 266 264 264 264 264 264 263 264 265 265 265 266 265 265 264 264 264 265 267 267 269 269 269 269 268 268 268 269 270
262 264 265 266 266 266 266 265 266 266 265 265 265 265 264 264 264 265 265 266 266 266 265 265 264 265 266 267 268 269 270 270 270 269 269 270 270 271
263 264 266 267 266 266 266 266 266 265 265 265 265 265 265 265 266 266 266 266 266 266 266 265 265 265 266 267 268 269 270 271 270 270 270 271 271 271
263 264 266 266 266 266 266 266 266 265 265 266 266 266 266 266 266 267 267 267 267 266 265 266 266 266 267 268 269 270 270 271 271 272 271 271 271 272
Height
5726 5726 5725 5724 5722 5722 5720 5719 5718 5717 5716 5713 5710 5708 5706 5704 5702 5700 5698 5696 5694 5692 5690 5688 5686 5684 5683 5682 5682 5681 5680 5680 5680 5680 5680 5681 5681 5682
5714 5713 5713 5712 5711 5710 5709 5708 5706 5705 5704 5702 5699 5697 5695 5693 5691 5689 5687 5685 5683 5681 5680 5678 5677 5675 5674 5673 5673 5672 5672 5672 5672 5673 5673 5674 5675 5676
5702 5701 5701 5700 5699 5699 5698 5696 5695 5693 5692 5690 5688 5686 5684 5682 5680 5678 5677 5675 5673 5672 5670 5669 5668 5666 5666 5665 5664 5664 5664 5664 5665 5666 5666 5667 5668 5670
5690 5689 5689 5688 5688 5687 5686 5685 5683 5682 5680 5679 5677 5675 5674 5672 5670 5668 5666 5665 5663 5662 5661 5659 5658 5658 5657 5656 5656 5656 5656 5657 5658 5659 5660 5661 5662 5663
5678 5678 5677 5677 5676 5676 5675 5673 5672 5670 5669 5668 5667 5665 5663 5662 5660 5658 5657 5655 5654 5653 5651 5650 5650 5649 5648 5648 5648 5648 5649 5650 5651 5652 5653 5654 5656 5657
5666 5666 5666 5665 5665 5664 5663 5662 5661 5660 5659 5657 5656 5655 5653 5651 5650 5648 5647 5646 5645 5643 5642 5642 5641 5641 5640 5640 5640 5641 5641 5642 5644 5645 5646 5647 5649 5650
5654 5654 5654 5654 5653 5653 5652 5651 5650 5649 5648 5647 5645 5644 5643 5641 5640 5638 5637 5636 5635 5634 5634 5633 5633 5633 5632 5632 5633 5633 5634 5635 5637 5638 5639 5640 5642 5643
5642 5642 5643 5643 5642 5642 5641 5640 5639 5639 5638 5637 5635 5634 5632 5631 5630 5629 5628 5627 5626 5626 5625 5625 5625 5625 5625 5625 5626 5626 5627 5629 5630 5631 5632 5634 5635 5637
5631 5631 5631 5631 5631 5631 5630 5629 5629 5628 5627 5626 5625 5624 5623 5621 5620 5619 5619 5618 5618 5617 5617 5617 5617 5617 5617 5618 5618 5619 5620 5622 5623 5624 5625 5627 5628 5630
5620 5620 5620 5620 5620 5620 5619 5619 5618 5617 5616 5615 5615 5614 5613 5612 5611 5611 5610 5610 5609 5609 5609 5609 5609 5610 5610 5610 5611 5612 5613 5614 5616 5617 5618 5619 5621 5622
5608 5609 5609 5609 5609 5609 5609 5608 5607 5607 5606 5605 5605 5604 5603 5603 5602 5602 5602 5602 5601 5601 5602 5602 5602 5602 5603 5603 5604 5605 5606 5607 5608 5609 5611 5612 5613 5614
5597 5598 5598 5598 5598 5598 5598 5598 5597 5597 5596 5596 5595 5595 5594 5594 5594 5594 5594 5594 5593 5594 5594 5594 5595 5595 5596 5596 5597 5598 5598 5600 5601 5602 5603 5604 5605 5606
5586 5587 5587 5588 5588 5587 5587 5587 5587 5587 5586 5586 5586 5585 5585 5585 5585 5585 5585 5585 5586 5586 5586 5587 5587 5587 5588 5589 5589 5590 5591 5592 5593 5594 5595 5596 5597 5598
5576 5576 5577 5577 5577 5577 5577 5577 5577 5577 5577 5577 5576 5576 5576 5577 5577 5577 5577 5577 5577 5578 5578 5579 5579 5580 5580 5581 5582 5582 5583 5584 5585 5586 5586 5587 5588 5589
5565 5566 5566 5567 5567 5567 5568 5567 5567 5567 5567 5567 5567 5567 5568 5568 5568 5568 5568 5569 5569 5570 5570 5570 5571 5572 5572 5573 5573 5574 5575 5576 5576 5577 5578 5578 5579 5580
5555 5556 5557 5557 5557 5558 5558 5558 5558 5558 5558 5558 5558 5558 5559 5559 5559 5560 5560 5561 5561 5561 5562 5562 5563 5563 5564 5564 5565 5566 5566 5567 5567 5568 5568 5569 5569 5570
5546 5546 5547 5547 5548 5548 5548 5548 5548 5548 5548 5548 5549 5549 5550 5550 5550 5551 5551 5552 5552 5553 5553 5554 5554 5555 5555 5556 5556 5557 5557 5558 5558 5558 5558 5558 5559 5559
5536 5537 5537 5537 5538 5538 5538 5538 5539 5539 5539 5539 5540 5540 5540 5541 5542 5542 5542 5543 5543 5544 5544 5544 5545 5545 5546 5546 5547 5547 5547 5548 5548 5548 5548 5548 5548 5549
5526 5527 5527 5528 5528 5528 5529 5529 5529 5529 5529 5530 5530 5531 5531 5532 5532 5533 5533 5533 5534 5534 5535 5535 5535 5536 5536 5537 5537 5537 5537 5537 5537 5537 5537 5537 5537 5538
5516 5517 5517 5518 5518 5518 5519 5519 5519 5520 5520 5520 5521 5521 5521 5522 5522 5523 5523 5524 5524 5524 5525 5525 5525 5525 5526 5527 5527 5527 5527 5527 5527 5526 5526 5526 5526 5526
5506 5507 5507 5508 5508 5508 5509 5509 5509 5510 5510 5510 5511 5511 5511 5512 5512 5513 5513 5513 5513 5514 5514 5514 5514 5515 5515 5516 5516 5516 5515 5515 5516 5515 5515 5515 5515 5514
5496 5497 5497 5497 5498 5498 5498 5499 5499 5499 5500 5500 5500 5500 5501 5501 5502 5502 5502 5502 5503 5503 5503 5503 5503 5504 5504 5505 5504 5504 5504 5504 5504 5503 5503 5503 5502 5502
5486 5486 5487 5487 5487 5488 5488 5488 5488 5489 5489 5489 5490 5490 5490 5490 5491 5491 5491 5491 5491 5491 5492 5492 5492 5492 5493 5493 5492 5492 5492 5491 5491 5491 5491 5490 5490 5490